Simultaneous Nadir Overpasses (SNOs) Predictions

Prediction of SNOs between GOES-16 and NOAA-20 Satellite Orbit:

Table of predicted SNOs for the next 14.0 days since TLE Epoch: 3/21/2020
Index Date Time (GOES-16) GOES-16 Lat,Lon NOAA-20 Lat,Lon Distance(km) Time Diff (sec)
1 03/22/2020 06:32:52 0.04, -75.16 0.33, -76.48 150.73 80
2 03/23/2020 06:11:28 0.04, -75.15 -0.67, -71.94 365.07 80
3 03/24/2020 18:33:25 -0.04, -75.15 -0.49, -77.25 239.03 80
4 03/25/2020 18:17:21 -0.04, -75.15 0.51, -72.72 277.27 80
5 03/27/2020 06:39:09 0.04, -75.14 0.68, -77.98 323.94 80
6 03/28/2020 06:17:44 0.04, -75.14 -0.32, -73.45 192.47 80
7 03/29/2020 18:39:42 -0.04, -75.15 -0.83, -78.76 411.21 80
8 03/30/2020 18:23:37 -0.04, -75.15 0.17, -74.22 105.42 80
9 04/01/2020 06:45:26 0.04, -75.15 1.01, -79.49 495.26 80
10 04/02/2020 06:24:01 0.04, -75.15 0.01, -74.96 21.44 80




NCC Satellite Simultaneous Nadir Overpasses (SNOs) Prediction Service
